Location: Cluj-Napoca
(46.7712°N, 23.6236°E)
Time: 04:33:55
(UTC+02:00)

ISS - Pass Details

Date: 26 January 2020
Orbit: 415 x 422 km, 51.6° (Epoch: 27 February)

Event Time Altitude Azimuth Distance (km) Brightness Sun altitude
Rises 17:45:38 0° 237° (WSW) 2,371 2.2 -5.0°
Reaches altitude 10° 17:47:44 10° 235° (SW) 1,508 0.7 -5.3°
Maximum altitude 17:51:07 72° 150° (SSE) 448 -3.6 -5.9°
Drops below altitude 10° 17:54:30 10° 66° (ENE) 1,512 -1.6 -6.4°
Enters shadow 17:54:48 - 66° (ENE) 1,635 -1.5 -6.5°
